Pueblo, CO

9:02 PM MDT on August 23, 2019 (GMT -0600)
Pueblo Memorial

Weather History for KPUB - July, 2019

Change the Weather History Date:

Sunday, July 21, 2019

  Actual Average Record
Temperature  
Mean Temperature 76 °F 76 °F  
Max Temperature 90 °F 93 °F 106 °F (1981)
Min Temperature 62 °F 59 °F 48 °F (1897)
Degree Days  
Heating Degree Days 0 0  
Month to date heating degree days 0 0  
Since 1 June heating degree days 8 25  
Since 1 July heating degree days 0 0  
Cooling Degree Days 11 11  
Month to date cooling degree days 285 226  
Year to date cooling degree days 432 435  
Since 1 June cooling degree days 423 401  
Growing Degree Days 26 (Base 50)    
Moisture  
Dew Point 60 °F    
Average Humidity 65    
Maximum Humidity 93    
Minimum Humidity 37    
Precipitation  
Precipitation 0.15 in 0.07 in 0.97 in (1930)
Month to date precipitation 2.39 1.30  
Year to date precipitation 8.97 7.15  
Snow  
Snow 0.00 in 0.00 in 0.00 in (2002)
Month to date snowfall T 0.0  
Since 1 June snowfall T 0.0  
Since 1 July snowfall T 0.0  
Snow Depth 0.00 in    
Sea Level Pressure  
Sea Level Pressure 30.04 in    
Wind  
Wind Speed 10 mph (SSE)    
Max Wind Speed 32 mph    
Max Gust Speed 42 mph    
Visibility 9 miles    
Events Rain , Thunderstorm    
T = Trace of Precipitation, MM = Missing Value Source: NWS Daily Summary

Daily Weather History Graph

Daily Weather History Graph

Search for Another Location

Airport or City:

Astronomy

Jul. 21, 2019 Rise Set
Actual Time 5:51 AM MDT 8:17 PM MDT
Civil Twilight 5:20 AM MDT 8:47 PM MDT
Nautical Twilight 4:43 AM MDT 9:24 PM MDT
Astronomical Twilight 4:01 AM MDT 10:06 PM MDT
Moon 11:16 PM MDT (7/21) 10:10 AM MDT (7/21)
Length of Visible Light 15h 26m
Length of Day
14h 26m
Waning Gibbous, 80% of the Moon is Illuminated
Jul 21
Waning Gibbous
Jul 24
Last Quarter
Jul 31
New
Aug 7
First Quarter
Aug 15
Full

Hourly Weather History & Observations

Time (MDT) Temp. Heat Index Dew Point Humidity Pressure Visibility Wind Dir Wind Speed Gust Speed Precip Events Conditions
12:53 AM 66.0 °F - 63.0 °F 90% 29.86 in 10.0 mi SW 3.5 mph - N/A   Clear
1:53 AM 66.9 °F - 61.0 °F 81% 29.86 in 10.0 mi North 3.5 mph - N/A   Clear
2:53 AM 64.0 °F - 60.1 °F 87% 29.88 in 10.0 mi ESE 3.5 mph - N/A   Clear
3:53 AM 64.0 °F - 60.1 °F 87% 29.90 in 10.0 mi Calm Calm - N/A   Clear
4:53 AM 63.0 °F - 61.0 °F 93% 29.92 in 10.0 mi WNW 3.5 mph - N/A   Clear
5:53 AM 62.1 °F - 60.1 °F 93% 29.99 in 10.0 mi Calm Calm - N/A   Clear
6:53 AM 63.0 °F - 61.0 °F 93% 30.00 in 9.0 mi WSW 3.5 mph - N/A   Clear
7:53 AM 66.9 °F - 63.0 °F 87% 29.99 in 10.0 mi West 6.9 mph - N/A   Clear
8:53 AM 71.1 °F - 61.0 °F 70% 29.99 in 10.0 mi Variable 3.5 mph - N/A   Clear
9:53 AM 75.9 °F - 61.0 °F 60% 29.96 in 10.0 mi Calm Calm - N/A   Clear
10:53 AM 79.0 °F - 59.0 °F 50% 29.96 in 10.0 mi Variable 5.8 mph - N/A   Clear
11:53 AM 81.0 °F 81.7 °F 61.0 °F 50% 29.95 in 10.0 mi SE 11.5 mph 18.4 mph N/A   Clear
12:53 PM 84.0 °F 83.8 °F 59.0 °F 43% 29.95 in 10.0 mi SE 10.4 mph - N/A   Clear
1:53 PM 86.0 °F 86.1 °F 61.0 °F 43% 29.93 in 10.0 mi SE 11.5 mph 18.4 mph N/A   Clear
2:53 PM 87.1 °F 87.0 °F 61.0 °F 41% 29.93 in 10.0 mi SE 11.5 mph 20.7 mph N/A   Clear
3:53 PM 89.1 °F 88.2 °F 59.0 °F 36% 29.94 in 10.0 mi East 9.2 mph 23.0 mph N/A   Clear
4:53 PM 87.1 °F 86.5 °F 59.0 °F 39% 29.97 in 10.0 mi ENE 12.7 mph - N/A   Clear
5:53 PM 86.0 °F 85.7 °F 60.1 °F 41% 29.95 in 10.0 mi SE 9.2 mph - N/A   Clear
6:53 PM 84.0 °F 84.9 °F 63.0 °F 49% 29.96 in 10.0 mi East 20.7 mph - N/A   Clear
7:53 PM 82.0 °F 83.4 °F 64.0 °F 54% 30.00 in 10.0 mi East 24.2 mph 33.4 mph N/A   Clear
8:53 PM 79.0 °F - 57.0 °F 47% 30.03 in 10.0 mi ENE 21.9 mph 38.0 mph N/A   Mostly Cloudy
9:53 PM 75.9 °F - 48.9 °F 38% 30.06 in 10.0 mi ENE 17.3 mph 28.8 mph N/A   Scattered Clouds
10:24 PM 73.0 °F - 55.9 °F 55% 30.39 in 10.0 mi WNW 15.0 mph 23.0 mph N/A   Overcast
10:45 PM 69.1 °F - 57.9 °F 68% 30.38 in 6.0 mi NW 8.1 mph - 0.01 in Rain , Thunderstorm Light Rain
10:53 PM 68.0 °F - 60.1 °F 76% 30.20 in 6.0 mi West 8.1 mph - 0.02 in Rain , Thunderstorm Light Rain
11:00 PM 68.0 °F - 61.0 °F 78% 30.39 in 8.0 mi SW 10.4 mph - 0.01 in Rain Light Rain
11:07 PM 68.0 °F - 61.0 °F 78% 30.39 in 10.0 mi WSW 8.1 mph - 0.01 in Rain , Thunderstorm Light Rain
11:22 PM 66.9 °F - 61.0 °F 81% 30.39 in 9.0 mi WSW 8.1 mph - 0.02 in Rain Light Rain
11:53 PM 64.9 °F - 61.0 °F 87% 30.21 in 5.0 mi WSW 15.0 mph - 0.06 in Rain Rain